San Francisco, CA

1:36 PM PDT on April 25, 2017 (GMT -0700)
Castro/Eureka Valley | | Change Station

Elev 194 ft 37.76 °N, 122.44 °W | Updated 1 minute ago

Mostly Cloudy
Mostly Cloudy
59.6 °F
Feels Like 59.6 °F
N
8.0
Wind Variable Wind from WSW
Gusts 21.0 mph

Today
High -- | Low -- °F
--% Chance of Precip.
Yesterday
High -- | Low -- °F
Precip. -- in
Pressure 30.11 in
Visibility 10.0 miles
Clouds Few 4000 ft
Mostly Cloudy 20000 ft
Dew Point Not available.
Humidity Not available.
Rainfall 0.00 in
Snow Depth Not available.
6:20 AM 7:55 PM
Waning Crescent, 1% visible
METAR KSFO 251956Z 28018G24KT 10SM FEW040 BKN200 17/09 A3011 RMK AO2 SLP195 T01670089
Pressure 30.11 in
Visibility 10.0 miles
Clouds Few 4000 ft
Mostly Cloudy 20000 ft
Dew Point Not available.
Humidity Not available.
Rainfall 0.00 in
Snow Depth Not available.
6:20 AM 7:55 PM
Waning Crescent, 1% visible
METAR KSFO 251956Z 28018G24KT 10SM FEW040 BKN200 17/09 A3011 RMK AO2 SLP195 T01670089

Get Severe Weather Alerts

Thanks for signing up!

Be on the lookout for a verification email in your inbox.

You'll start receiving the daily forecast at 8 AM.

×

10-Day Weather Forecast

Almanac

Astronomy

Apr. 25, 2017 Rise Set
Actual Time
Civil Twilight
Nautical Twilight
Astronomical Twilight
Moon
Length of Visible Light
Length of Day
Tomorrow will be .
, % of the Moon is Illuminated

Today's Extremes

State Highs State Lows

Community

WunderPhotos

WunderBlog® & News

Nearby

Air Quality

  Air Quality AQ Index Pollutant
Not available.

Snow Depth

Station Depth Elevation

Earthquake Activity

City Distance Mag. Time & Date
Minimum magnitude displayed is 2.5.

Coastal Water Temperatures

Place Temperature

Stations

Nearby Weather Stations

Station Location Temp. Windchill Dew Point Humidity Wind Precip. Elev Updated Type
                   

Watches & Warnings

There are currently no watches in effect.